TimeCET,TemperatureF,Dew PointF,Humidity,Sea Level PressureIn,VisibilityMPH,Wind Direction,Wind SpeedMPH,Gust SpeedMPH,PrecipitationIn,Events,Conditions,WindDirDegrees,DateUTC
12:45 AM,30.2,26.6,86,29.62,-9999.0,SSE,5.8,-,N/A,,Clear,150,2013-01-19 23:45:00
1:00 AM,30,26,78,29.65,7,SSE,4.5,,,,Partly Cloudy,150,2013-01-20 00:00:00
1:45 AM,30.2,26.6,86,29.65,6.2,SE,4.6,-,N/A,,Overcast,140,2013-01-20 00:45:00
2:45 AM,30.2,28.4,93,29.65,6.2,SE,4.6,-,N/A,,Overcast,130,2013-01-20 01:45:00
3:42 AM,32.0,30.2,93,29.65,5.0,SE,5.8,-,N/A,Rain,Rain,130,2013-01-20 02:42:00
3:45 AM,32.0,30.2,93,29.62,5.0,SE,5.8,-,N/A,Rain,Rain,130,2013-01-20 02:45:00
4:45 AM,32.0,30.2,93,29.59,3.7,ESE,6.9,-,N/A,Rain,Rain,110,2013-01-20 03:45:00
5:15 AM,32.0,30.2,93,29.62,3.1,SE,4.6,-,N/A,Rain,Rain,130,2013-01-20 04:15:00
5:45 AM,32.0,32.0,100,29.62,4.3,ESE,5.8,-,N/A,Rain,Rain,120,2013-01-20 04:45:00
6:15 AM,32.0,30.2,93,29.62,4.3,SE,6.9,-,N/A,Rain,Rain,130,2013-01-20 05:15:00
6:45 AM,32.0,30.2,93,29.62,3.7,SE,5.8,-,N/A,Rain,Rain,130,2013-01-20 05:45:00
7:00 AM,32,31,94,29.63,4,SE,6.7,,,,Light Freezing Rain,130,2013-01-20 06:00:00
7:15 AM,32.0,32.0,100,29.62,5.0,ESE,6.9,-,N/A,,Mostly Cloudy,120,2013-01-20 06:15:00
7:45 AM,32.0,32.0,100,29.62,5.0,SE,6.9,-,N/A,,Mostly Cloudy,130,2013-01-20 06:45:00
8:15 AM,33.8,32.0,93,29.62,-9999.0,SE,5.8,-,N/A,,Clear,130,2013-01-20 07:15:00
8:45 AM,33.8,32.0,93,29.62,-9999.0,SE,6.9,-,N/A,,Clear,130,2013-01-20 07:45:00
9:15 AM,33.8,32.0,93,29.59,-9999.0,SE,6.9,-,N/A,,Clear,130,2013-01-20 08:15:00
9:45 AM,33.8,32.0,93,29.59,-9999.0,SE,6.9,-,N/A,,Clear,130,2013-01-20 08:45:00
10:15 AM,35.6,32.0,87,29.59,-9999.0,SE,10.4,-,N/A,,Clear,130,2013-01-20 09:15:00
10:45 AM,35.6,33.8,93,29.59,-9999.0,SE,12.7,-,N/A,,Clear,140,2013-01-20 09:45:00
11:15 AM,35.6,33.8,93,29.59,-9999.0,SE,13.8,-,N/A,,Clear,140,2013-01-20 10:15:00
11:45 AM,37.4,33.8,87,29.56,-9999.0,SE,12.7,-,N/A,,Clear,140,2013-01-20 10:45:00
12:15 PM,37.4,35.6,93,29.56,-9999.0,SE,15.0,-,N/A,,Clear,140,2013-01-20 11:15:00
12:45 PM,37.4,35.6,93,29.56,-9999.0,SE,11.5,-,N/A,,Clear,140,2013-01-20 11:45:00
1:00 PM,38,35,85,29.57,11,SE,11.2,,,,Partly Cloudy,140,2013-01-20 12:00:00
1:15 PM,39.2,35.6,87,29.53,-9999.0,SE,11.5,-,N/A,,Clear,140,2013-01-20 12:15:00
1:45 PM,39.2,35.6,87,29.53,-9999.0,SE,12.7,-,N/A,,Clear,140,2013-01-20 12:45:00
2:15 PM,39.2,35.6,87,29.53,-9999.0,SSE,12.7,-,N/A,,Clear,150,2013-01-20 13:15:00
2:45 PM,41.0,37.4,87,29.53,-9999.0,SSE,12.7,-,N/A,,Clear,150,2013-01-20 13:45:00
3:15 PM,41.0,37.4,87,29.53,-9999.0,SSE,12.7,-,N/A,,Clear,150,2013-01-20 14:15:00
3:45 PM,41.0,37.4,87,29.53,-9999.0,SSE,11.5,-,N/A,,Clear,150,2013-01-20 14:45:00
4:15 PM,39.2,37.4,93,29.53,-9999.0,SE,11.5,-,N/A,,Clear,140,2013-01-20 15:15:00
4:45 PM,41.0,37.4,87,29.53,-9999.0,SE,10.4,-,N/A,,Clear,140,2013-01-20 15:45:00
5:15 PM,39.2,37.4,93,29.53,-9999.0,SE,10.4,-,N/A,,Clear,140,2013-01-20 16:15:00
5:45 PM,41.0,37.4,87,29.50,-9999.0,SE,11.5,-,N/A,,Clear,140,2013-01-20 16:45:00
6:15 PM,41.0,37.4,87,29.50,-9999.0,SE,12.7,-,N/A,,Clear,140,2013-01-20 17:15:00
6:45 PM,41.0,39.2,93,29.50,6.2,SE,11.5,-,N/A,Rain,Light Rain,140,2013-01-20 17:45:00
7:00 PM,42,38,83,29.52,9,SE,11.2,,,Rain,Light Rain,140,2013-01-20 18:00:00
7:15 PM,42.8,39.2,87,29.50,-9999.0,SSE,11.5,-,N/A,,Clear,150,2013-01-20 18:15:00
7:45 PM,42.8,39.2,87,29.53,-9999.0,SSE,12.7,-,N/A,,Clear,150,2013-01-20 18:45:00
8:15 PM,42.8,39.2,87,29.53,-9999.0,SSE,11.5,-,N/A,,Clear,150,2013-01-20 19:15:00
8:45 PM,44.6,41.0,87,29.50,6.2,SSE,16.1,-,N/A,Rain,Light Rain,150,2013-01-20 19:45:00
9:45 PM,44.6,41.0,87,29.50,6.2,SSE,17.3,-,N/A,Rain,Light Rain,150,2013-01-20 20:45:00
10:45 PM,44.6,41.0,87,29.53,-9999.0,SSE,15.0,-,N/A,,Clear,150,2013-01-20 21:45:00
11:45 PM,46.4,42.8,87,29.50,6.2,SSE,15.0,-,N/A,Rain,Light Rain,160,2013-01-20 22:45:00